Wind_Speed
50 51 55 55 54 56 58 57 54 52 52 53 52 51 50 49 51 51 49 52 55 54 51 48 45 46 43 37 37 41 42 41 39 35 35 33 30 28 28 28 28 28 28 30 31 30 31 31 30 30 30 29 27 26 26 25 24 24 24 25 25 27 28 27 27 28 27 27 27 27 25 24 23 22 21 21 20 20 21 22 22 21 21 20 20 21
49 49 50 47 47 51 55 56 56 53 53 54 52 49 49 49 48 47 49 53 57 57 54 52 50 49 47 41 38 41 43 42 40 37 34 33 32 31 31 30 30 29 30 31 31 30 31 32 31 30 30 29 29 28 27 25 24 24 24 25 25 27 28 27 27 28 27 27 28 27 26 26 25 23 23 23 22 23 23 24 24 23 22 20 20 21
50 47 44 43 45 48 51 53 56 55 54 56 54 49 48 48 46 44 47 52 56 58 57 55 54 52 52 48 43 41 41 41 41 40 35 33 34 34 33 33 32 32 31 30 31 31 32 32 32 32 30 29 29 29 28 27 26 26 26 25 25 27 27 28 28 28 28 28 28 27 27 27 26 25 25 25 25 25 26 26 25 24 24 22 21 21
55 48 42 43 46 47 49 50 51 54 55 56 55 52 50 49 47 47 49 51 55 58 59 58 57 56 54 53 48 42 41 42 43 42 38 35 35 37 36 35 34 33 32 31 31 32 33 34 33 32 31 31 30 29 29 29 28 28 27 27 27 28 28 28 28 28 29 29 28 27 27 27 27 26 26 26 27 28 28 27 26 26 26 24 23 23
64 57 47 46 49 51 51 49 47 49 52 55 56 55 54 52 49 50 52 54 57 59 59 58 59 59 56 54 50 43 42 44 44 45 43 37 36 38 39 37 35 34 33 33 33 33 34 36 36 35 33 33 32 30 30 30 30 29 29 29 29 30 29 29 29 30 31 30 29 28 28 28 27 27 26 26 28 31 30 29 28 28 27 27 26 25
73 68 57 49 51 55 56 53 50 48 49 52 55 56 56 54 52 54 56 58 61 61 60 60 60 60 56 55 52 46 44 46 47 48 46 40 37 37 38 37 36 35 35 35 35 35 36 38 39 37 35 34 33 33 33 31 31 30 30 31 31 31 31 31 30 31 33 33 32 31 31 30 29 28 27 27 29 32 32 31 30 29 29 29 28 27
73 71 64 54 52 56 58 58 55 52 51 53 55 55 55 55 55 57 57 57 60 61 61 62 62 61 58 56 54 49 46 46 48 50 48 44 40 37 36 36 37 37 38 38 37 37 38 39 40 40 38 37 36 36 35 34 33 32 31 31 32 32 32 32 32 32 34 35 35 34 34 34 32 31 31 30 31 33 33 33 32 31 31 31 31 30
69 68 68 62 57 56 56 57 57 55 55 57 57 56 57 58 59 59 59 60 62 61 61 62 61 61 61 58 55 54 51 48 48 49 49 47 42 37 36 37 37 38 39 39 39 39 39 39 42 42 41 41 40 38 37 37 36 34 33 32 32 32 33 33 34 33 34 35 36 36 35 35 35 34 33 34 34 35 35 35 35 34 34 33 34 34
66 66 67 66 64 62 57 54 56 56 57 59 60 60 61 62 64 64 65 67 67 66 66 63 60 62 62 59 57 58 57 53 50 50 50 49 45 40 39 40 42 43 42 41 41 41 39 40 43 45 45 44 43 41 39 38 38 37 36 34 32 32 33 34 35 35 34 35 36 36 35 35 35 35 34 35 36 37 37 37 37 37 37 37 37 37
67 67 66 67 67 66 60 55 56 57 58 60 59 60 62 63 65 67 68 68 68 69 69 64 61 64 64 61 59 60 59 56 54 52 52 52 50 45 42 43 45 46 46 45 44 44 43 43 44 46 47 47 45 43 42 40 40 40 38 37 35 33 34 35 36 36 36 36 36 37 36 36 35 35 35 35 35 37 39 39 40 40 40 40 40 40
70 69 70 69 63 58 55 55 57 60 60 60 58 58 59 60 62 66 68 67 67 69 67 62 61 65 67 63 61 62 60 57 56 54 53 54 54 50 46 44 45 46 48 48 47 47 47 46 45 46 48 48 48 46 44 43 42 42 41 40 38 36 36 36 37 37 37 38 38 38 38 36 36 36 36 35 35 36 38 39 40 41 42 42 43 43
73 72 75 74 64 54 51 51 54 59 61 59 56 54 54 55 56 59 63 63 66 68 64 60 60 64 68 64 61 61 60 58 57 55 53 54 55 53 49 47 46 47 48 48 48 48 47 47 46 47 48 49 49 48 46 45 45 45 44 43 41 40 39 39 39 39 39 39 39 39 39 38 38 38 37 37 36 36 37 38 40 40 41 42 44 45
72 73 75 76 73 63 57 55 52 53 58 59 57 53 51 53 53 53 55 57 60 62 60 61 62 64 67 62 58 58 57 55 55 55 53 52 54 53 51 50 48 49 49 49 50 49 48 49 48 48 49 50 50 50 48 47 47 47 46 46 44 43 42 41 41 41 41 40 40 41 41 41 40 40 39 39 38 38 38 39 40 40 41 42 43 44
69 73 75 78 80 73 65 62 54 48 51 54 54 52 51 52 50 48 49 52 55 54 54 59 61 62 62 57 54 56 55 52 50 51 51 49 50 51 51 51 49 49 51 52 52 51 51 51 51 51 51 51 52 51 50 49 49 48 48 48 47 46 45 44 43 43 43 42 42 42 43 43 43 42 41 41 41 41 40 41 41 41 41 42 42 43
68 72 75 76 79 76 69 65 59 55 55 56 53 53 54 51 47 45 44 47 50 49 51 56 58 60 59 54 52 54 55 53 50 49 48 47 46 47 49 50 49 49 51 53 53 53 54 54 54 55 55 55 55 54 54 53 51 51 50 49 49 48 47 46 45 45 44 44 44 44 44 44 44 44 43 43 43 43 43 43 43 42 42 43 43 43
68 71 71 69 71 74 73 72 72 72 71 71 68 66 64 57 52 51 49 46 46 46 49 56 60 59 57 53 51 53 56 55 53 49 46 46 46 46 48 49 48 48 50 52 53 53 54 54 54 55 56 57 57 57 57 56 55 54 53 52 52 51 50 49 48 48 47 47 46 45 45 45 45 45 45 45 45 45 45 45 45 44 44 44 45 45
67 69 67 67 68 70 73 76 78 78 78 78 78 76 73 67 65 65 59 53 51 50 48 51 59 59 55 52 49 49 52 53 52 48 44 45 45 44 46 47 46 45 47 48 50 51 52 52 54 55 55 56 57 58 58 58 58 57 56 55 55 55 54 53 52 52 51 50 49 48 48 47 47 47 47 47 47 47 47 47 47 47 46 46 46 47
64 66 65 65 67 67 70 75 78 80 80 79 79 78 74 73 75 75 71 66 63 60 51 45 51 55 53 53 51 49 49 50 51 48 44 44 43 41 43 44 45 45 47 48 49 51 53 53 55 56 56 57 57 58 58 59 59 59 58 57 57 57 57 56 56 55 55 54 53 52 51 50 50 49 49 48 48 49 49 49 49 49 49 49 49 49
58 62 63 62 64 66 70 74 77 80 81 80 78 77 73 72 75 78 80 77 71 68 59 47 47 49 50 53 52 47 47 49 50 49 47 45 43 42 44 45 48 50 52 53 53 54 55 56 57 57 57 58 58 59 59 59 60 60 60 60 59 59 58 58 58 57 57 57 55 54 54 53 52 52 51 50 50 50 50 50 51 51 51 52 52 52
54 58 60 59 62 67 70 73 76 77 79 80 79 77 74 72 73 76 79 80 77 76 72 61 53 49 47 47 45 43 44 46 49 49 47 47 47 47 48 50 52 51 51 54 55 56 56 56 57 57 57 58 58 59 60 60 60 60 61 61 61 61 60 60 59 59 58 58 57 56 55 55 54 53 53 52 51 51 51 51 52 53 53 53 54 54
55 57 58 59 63 68 70 71 72 72 74 77 78 79 79 77 76 75 76 79 79 78 79 76 68 56 44 39 38 39 40 42 47 49 46 44 46 49 51 52 53 49 46 49 53 54 55 55 55 56 58 59 60 60 60 60 61 61 61 61 62 62 62 62 61 60 59 59 58 57 57 56 55 54 54 53 53 52 52 53 54 54 55 54 55 56
56 57 58 61 65 67 67 67 69 71 73 75 76 78 79 79 79 76 75 78 79 77 77 79 79 67 49 42 40 37 38 41 44 46 42 38 39 43 47 48 49 47 43 43 47 51 53 54 55 55 56 57 59 60 60 60 61 61 61 61 61 62 62 62 62 61 61 60 59 59 58 57 56 56 55 55 54 54 55 55 56 56 56 56 57 57
56 55 55 57 58 58 59 62 66 69 70 72 75 77 78 80 82 80 79 80 78 75 71 72 78 72 59 57 56 47 46 48 47 44 41 39 37 36 38 41 45 46 42 39 42 45 49 51 52 51 50 52 53 54 56 57 58 59 59 60 60 61 61 61 61 61 60 60 60 60 59 59 58 58 57 56 56 56 56 57 58 58 58 58 58 59
57 55 54 52 49 49 51 52 54 56 60 65 69 72 75 78 80 78 77 74 68 65 63 66 75 75 69 70 71 63 59 60 57 52 46 42 38 34 35 37 41 43 42 39 39 40 43 45 47 48 48 48 48 48 50 52 54 55 56 56 57 57 58 59 59 59 59 59 59 60 60 60 60 60 59 59 58 58 58 59 59 59 59 59 60 60
59 57 55 53 50 51 51 49 48 48 50 54 57 61 65 68 71 71 69 67 65 64 62 62 69 74 75 76 76 74 72 69 68 64 56 50 46 42 40 40 40 41 42 41 40 40 42 44 45 47 47 47 47 46 46 48 50 51 53 53 53 53 53 54 55 56 57 58 58 59 59 59 60 60 60 60 59 59 59 59 60 60 60 60 60 61
62 61 58 57 57 56 56 55 52 50 50 50 51 53 55 57 59 62 61 61 62 62 61 60 61 64 69 73 74 74 73 73 73 71 66 62 59 54 50 46 44 42 41 41 41 42 44 47 48 48 47 47 47 46 45 46 47 49 50 51 51 51 51 51 52 53 54 55 56 57 57 58 58 59 59 59 60 60 60 60 60 60 60 61 61 61
63 63 60 61 62 62 60 57 53 51 50 49 49 49 50 50 51 53 55 56 55 55 56 57 55 55 59 65 65 62 62 66 70 70 70 69 67 65 60 56 53 51 48 45 43 44 46 47 49 49 49 48 48 48 48 47 47 48 49 49 50 50 50 49 49 50 51 52 53 54 55 56 56 57 58 58 59 59 59 60 60 61 61 61 61 62
62 64 63 63 65 64 63 61 58 57 55 54 53 52 52 53 54 56 58 58 56 57 59 59 57 57 59 60 59 54 52 57 62 65 67 67 66 65 64 62 61 60 58 55 51 50 50 50 50 50 50 50 51 51 51 50 50 50 50 51 51 51 50 50 49 49 49 49 50 50 51 52 54 55 56 57 58 58 58 59 59 60 60 61 61 62
61 64 65 66 68 68 69 68 66 65 65 64 63 62 61 61 61 63 64 64 64 65 66 64 62 63 63 61 59 56 53 54 57 60 63 63 61 60 60 62 63 63 63 62 60 58 56 56 55 54 54 55 55 54 53 51 51 52 53 54 54 54 54 54 53 52 51 51 50 49 49 48 49 51 52 54 55 56 56 57 57 58 58 58 58 58
60 62 63 65 67 68 71 74 72 71 71 70 68 67 66 66 66 66 67 67 69 70 70 69 69 71 69 66 64 61 59 57 55 56 59 61 61 60 59 59 62 64 65 65 66 65 63 63 63 62 61 60 60 60 58 56 55 55 56 57 58 58 58 58 57 57 57 56 55 55 53 51 50 50 51 52 53 53 53 53 53 53 53 54 54 54
55 58 61 63 65 66 67 69 70 71 72 72 72 70 68 66 66 66 67 68 70 71 70 69 71 72 71 67 64 62 61 61 60 60 60 59 58 57 57 57 57 59 62 64 67 69 70 70 70 69 67 65 63 62 62 61 61 61 61 61 61 61 61 61 61 60 60 61 61 61 59 57 56 55 55 56 56 56 55 54 53 53 52 52 51 52
53 55 56 57 61 63 62 60 60 61 63 66 68 68 68 68 67 66 65 65 66 67 67 67 69 70 68 66 65 65 66 68 70 69 66 61 58 57 57 58 57 58 61 65 67 68 70 71 71 71 70 68 65 62 61 61 61 60 60 60 61 62 62 63 63 62 63 63 64 65 64 63 62 61 60 60 60 61 60 59 59 58 57 56 55 54
55 56 55 54 56 58 57 57 56 55 57 61 62 62 64 65 65 66 66 65 65 65 67 69 70 69 67 68 69 70 70 71 73 72 68 64 62 61 60 61 62 63 65 67 67 67 69 71 71 72 72 71 69 67 65 64 63 62 61 61 62 63 64 65 66 66 67 67 67 68 68 69 68 66 66 65 65 65 65 64 64 63 63 62 62 61
57 58 59 59 59 58 58 59 60 61 64 65 63 62 63 65 65 67 68 68 67 67 68 70 70 69 69 70 70 71 71 71 70 71 70 67 66 66 67 66 66 66 67 67 67 68 70 71 72 74 75 75 75 74 72 71 69 68 66 65 65 65 65 66 67 68 69 70 71 71 71 72 72 72 72 71 71 70 69 69 69 68 68 68 67 66
56 57 58 59 60 59 58 60 65 68 68 64 62 63 65 65 66 68 69 68 67 68 68 69 68 68 67 67 68 69 70 71 71 72 73 73 71 71 72 72 70 68 67 67 69 70 71 71 72 74 75 77 77 77 77 76 75 74 72 71 69 67 66 66 67 68 69 70 71 72 73 73 74 74 75 76 76 75 74 74 74 75 74 74 73 72
55 55 55 56 58 57 58 61 64 66 65 62 60 61 61 61 63 66 67 66 65 66 67 67 67 67 67 66 66 67 67 69 71 73 74 76 77 76 75 75 75 73 71 69 69 70 71 73 73 74 75 76 77 78 78 77 77 76 76 76 74 72 70 68 67 68 68 69 70 71 72 73 74 74 75 77 78 78 78 78 78 79 79 79 78 77
55 55 55 57 58 58 60 62 62 65 63 57 52 52 53 57 61 64 66 65 64 65 66 66 66 65 64 63 62 62 63 65 68 71 72 75 77 77 77 77 77 77 75 73 71 70 71 72 74 75 75 76 77 78 78 77 76 76 76 77 77 76 75 73 71 70 70 70 71 72 73 74 74 74 75 77 78 79 79 79 78 79 79 79 79 79
53 53 54 55 56 57 59 59 61 64 56 45 42 44 48 55 59 62 65 66 63 62 63 63 62 61 59 59 59 59 60 63 65 67 70 72 73 75 77 78 78 78 78 76 74 71 70 70 71 73 74 76 77 78 78 78 77 77 77 78 78 78 78 77 75 74 73 73 74 75 76 76 76 76 76 77 78 79 80 80 79 78 78 78 78 79
51 51 51 52 53 56 57 57 62 61 49 41 42 43 47 56 59 60 63 61 56 55 58 59 58 58 57 57 57 57 59 62 63 64 66 68 68 69 72 74 74 75 75 75 75 73 72 71 71 71 72 73 74 76 77 77 77 77 77 77 78 78 78 78 78 77 75 74 75 76 78 78 78 78 78 78 78 79 80 81 81 80 80 80 80 79
52 51 53 53 54 56 56 57 61 57 47 44 45 43 50 59 57 57 59 53 48 50 54 55 55 54 54 53 52 53 55 57 57 57 58 58 58 59 61 62 64 65 65 67 70 72 73 74 74 74 74 74 73 74 74 75 76 76 76 75 76 76 76 77 77 77 77 76 75 75 76 78 79 80 79 78 78 78 79 81 82 82 82 82 82 81
52 53 54 53 53 55 55 56 58 52 46 47 47 46 53 58 54 53 52 44 43 47 49 50 51 49 48 48 48 49 51 51 50 49 49 48 48 50 51 54 57 60 61 62 64 67 70 73 74 75 76 77 76 75 74 74 74 74 74 74 73 73 73 73 74 75 76 76 75 75 75 76 77 79 80 81 80 79 78 79 80 81 81 82 82 82
51 53 54 54 53 54 53 55 57 50 44 47 48 50 56 57 51 48 44 39 40 42 42 45 47 45 44 45 45 47 49 49 49 49 48 48 48 50 52 55 58 61 63 65 65 65 66 68 70 73 74 76 78 78 77 76 74 73 73 73 73 72 72 71 71 72 73 74 75 75 75 75 75 76 77 79 80 80 80 79 79 78 78 78 79 80
51 52 53 54 55 55 56 58 55 45 40 44 48 49 52 51 45 43 42 41 41 42 43 46 46 45 46 46 47 49 51 51 52 52 52 52 52 53 56 58 60 63 66 68 69 68 68 67 68 70 71 73 75 76 77 78 77 75 74 73 72 72 71 71 71 71 72 73 74 74 75 75 75 76 76 76 77 78 79 80 80 78 77 76 75 75
52 53 54 55 56 58 59 56 48 41 40 44 47 47 47 45 43 44 45 45 44 45 46 48 47 48 49 49 51 53 53 54 55 55 55 55 55 56 57 59 61 64 67 70 71 72 71 70 69 70 71 73 74 75 76 76 77 77 77 76 74 72 70 70 70 70 71 72 73 74 74 74 75 75 76 76 76 76 77 78 79 79 78 77 76 74
53 53 53 54 55 56 57 52 46 45 48 49 50 50 49 46 46 46 46 46 46 47 48 49 50 52 52 53 54 54 54 55 56 56 57 58 59 60 61 62 63 64 66 69 72 73 74 74 73 72 72 73 74 75 75 75 75 75 76 76 76 74 72 69 67 66 67 68 70 70 71 71 72 72 73 74 74 74 74 74 75 75 75 75 74 74
51 51 52 53 54 55 55 50 47 49 52 52 52 53 51 49 48 49 49 49 49 49 50 52 53 54 54 55 56 56 56 57 58 60 61 62 63 65 65 65 65 64 63 64 67 69 71 71 71 71 70 70 71 72 73 74 73 73 72 72 72 72 71 69 66 64 62 63 64 65 65 65 65 65 66 68 68 69 69 69 69 68 68 68 68 67
51 52 53 53 55 55 53 49 48 50 51 52 53 54 53 52 52 52 53 53 53 54 54 55 55 56 58 59 59 59 59 60 61 63 65 67 67 67 67 66 65 64 62 60 59 61 62 63 64 64 64 64 65 67 69 70 69 69 68 67 66 66 65 65 64 62 60 58 58 59 60 60 59 59 59 60 61 61 62 62 62 61 60 60 60 60
51 52 53 53 54 55 52 50 50 51 51 52 54 54 54 54 54 55 56 57 57 58 58 58 59 59 60 61 61 61 61 63 65 67 69 70 70 68 68 67 64 64 63 60 58 57 57 58 60 60 59 58 58 60 62 64 66 67 66 64 63 62 61 59 58 57 56 54 51 51 52 54 54 55 55 55 55 55 55 55 55 54 53 53 53 53
51 52 53 53 54 55 53 51 52 52 52 54 55 55 56 56 57 58 59 59 59 60 60 61 61 61 62 62 63 63 64 66 69 71 72 73 70 69 68 66 63 62 63 61 60 59 58 57 57 56 56 56 56 56 57 58 60 63 63 62 60 58 56 55 54 54 54 51 48 46 46 48 49 51 51 51 50 51 51 51 52 51 50 50 50 50
51 51 51 52 53 53 51 51 52 53 55 56 57 58 58 58 59 60 60 61 61 62 62 62 62 62 62 63 64 65 67 70 73 75 75 74 71 68 67 64 61 59 59 59 59 60 60 60 58 57 56 57 56 56 56 56 57 58 59 59 58 55 53 52 52 53 52 51 49 49 48 48 49 49 50 49 49 49 50 50 51 51 51 51 51 51
48 49 50 51 52 52 52 53 54 55 57 58 59 59 60 60 60 60 61 62 62 62 62 62 62 62 62 64 66 68 71 75 78 79 78 75 71 69 67 64 61 59 58 58 59 61 62 63 62 61 61 60 59 59 58 58 58 58 58 58 58 57 56 55 54 54 53 51 50 49 49 49 50 50 51 51 51 51 50 50 50 50 51 51 52 51
Wind_Direction
223 226 229 232 232 233 234 235 236 236 236 237 238 239 242 245 247 249 251 252 253 251 249 247 246 246 244 237 236 240 241 243 244 243 246 251 252 252 254 256 256 257 257 257 257 258 261 262 261 260 262 264 265 265 265 266 267 266 266 267 267 268 270 270 271 272 273 275 276 277 277 277 278 279 279 279 279 280 280 280 280 281 284 287 289 289
219 224 226 232 234 233 232 233 234 233 234 235 236 237 239 243 245 248 250 250 250 251 250 247 245 244 245 240 235 239 243 245 246 245 246 250 252 251 251 253 254 255 255 256 258 259 260 262 262 262 262 263 264 264 264 265 265 265 265 266 267 269 271 272 273 274 275 275 276 277 278 278 278 278 278 277 277 278 277 276 277 279 280 282 284 285
218 220 222 228 233 233 231 232 233 232 233 234 234 234 236 240 242 246 249 247 247 249 250 249 247 245 246 245 240 240 244 247 247 247 245 246 250 251 250 250 251 253 254 255 257 259 261 262 262 263 264 264 264 264 265 264 263 263 264 266 267 269 271 273 274 275 275 276 277 279 280 280 280 279 279 278 278 277 275 275 277 279 279 279 280 282
221 222 226 230 231 231 230 230 231 231 232 233 233 232 234 239 242 245 248 248 247 247 248 248 247 246 246 246 244 243 244 246 248 248 246 244 247 250 251 249 248 251 253 254 254 256 259 262 262 263 264 264 265 265 265 265 263 263 263 265 266 267 268 271 273 275 275 276 278 280 281 281 282 281 280 281 279 276 274 275 278 279 280 280 280 279
224 227 231 236 236 234 231 229 229 229 231 232 233 234 234 237 241 244 249 252 250 248 248 248 247 246 246 248 247 244 243 245 247 248 248 245 245 248 251 251 249 249 251 251 252 254 257 260 262 262 263 265 266 266 264 264 264 263 264 264 265 265 267 270 273 275 276 277 279 280 281 282 283 282 282 281 279 277 276 277 277 279 281 281 280 280
227 230 231 235 240 238 235 233 231 231 232 232 232 233 233 235 239 243 248 251 251 249 248 249 247 245 245 248 248 244 242 244 246 247 248 248 247 247 249 251 251 250 249 249 249 252 255 259 261 262 262 263 265 266 265 265 265 264 264 265 266 266 267 268 270 273 275 276 277 279 280 280 280 281 281 279 277 277 278 277 277 279 280 280 281 281
227 230 230 232 239 240 237 235 234 234 235 235 235 233 233 232 235 240 244 247 249 248 248 248 247 245 243 246 247 246 244 243 246 248 248 248 248 249 249 249 250 251 250 249 248 249 253 257 260 262 262 263 263 264 267 268 267 266 265 265 266 267 268 269 270 271 273 275 276 276 277 277 277 277 277 276 275 276 278 279 279 279 279 280 281 281
225 228 229 229 236 239 236 235 234 234 236 238 238 236 235 234 233 236 240 244 246 246 247 247 248 247 243 243 246 247 245 242 244 248 250 249 248 248 248 248 250 252 251 250 248 248 251 255 258 261 262 263 264 264 266 268 269 269 268 267 266 268 270 271 272 271 272 274 275 275 275 277 278 277 275 274 274 275 276 279 280 280 280 280 280 280
223 225 226 227 233 237 235 234 234 234 234 237 239 238 237 236 235 235 238 242 245 246 247 247 249 250 245 243 245 246 245 244 243 246 250 251 250 248 247 249 253 254 252 250 249 249 250 254 258 261 262 263 265 266 266 266 268 269 270 270 269 269 269 270 271 272 272 273 274 274 275 276 277 278 277 275 275 276 277 278 280 281 281 281 281 281
223 222 224 227 230 233 231 230 231 231 231 234 236 237 237 237 238 238 240 242 245 248 248 247 249 252 249 245 247 247 245 245 244 245 249 251 252 251 249 249 252 255 254 251 249 250 252 253 256 260 263 264 265 266 266 266 267 268 269 269 269 268 268 269 270 271 272 273 273 275 275 275 276 277 278 278 279 280 280 280 280 280 280 281 282 282
222 220 223 225 225 224 222 223 225 225 227 228 230 233 234 236 238 240 242 244 246 248 248 247 249 254 252 246 247 249 248 247 245 245 248 252 254 254 252 251 252 254 255 254 253 253 254 255 255 258 260 263 265 266 267 267 267 267 267 267 267 266 266 267 269 270 271 272 274 275 276 276 277 277 278 279 280 281 281 282 281 279 279 279 280 281
222 220 222 223 223 220 216 218 220 221 223 225 228 231 232 235 238 242 243 245 248 248 248 248 249 253 252 246 246 250 250 249 248 246 246 249 254 256 256 254 253 254 255 256 257 256 256 257 257 257 258 261 263 265 266 266 266 267 267 267 267 266 266 266 267 268 269 271 273 274 276 278 278 278 279 279 279 279 280 281 281 280 280 279 279 280
222 221 221 222 224 225 222 221 218 218 221 223 226 230 233 235 238 243 246 246 249 249 248 248 249 253 252 246 247 250 250 251 251 250 248 248 251 255 256 255 255 256 257 257 258 258 258 258 258 258 258 260 261 263 264 265 265 266 266 267 267 267 267 267 267 268 268 269 271 273 275 276 276 277 278 279 278 278 279 279 280 281 281 280 280 280
222 222 222 221 223 226 227 227 222 218 220 223 225 228 231 234 237 243 247 247 248 248 247 247 249 254 252 245 246 249 250 251 251 251 251 249 251 254 255 256 254 254 256 257 258 259 259 259 259 259 259 259 261 262 263 263 264 265 266 267 268 268 269 268 268 268 268 268 269 271 272 273 274 275 276 277 278 279 278 279 280 281 282 282 282 282
223 224 224 223 223 225 228 229 228 226 228 229 227 228 229 230 236 244 246 246 246 244 245 246 249 254 253 245 245 249 251 252 251 252 253 251 251 253 254 256 255 254 254 256 257 258 258 259 259 260 261 261 262 262 263 263 264 265 266 266 267 267 267 267 267 267 267 267 268 268 269 269 271 272 274 275 277 278 278 279 280 281 283 284 284 283
226 228 229 228 227 228 230 234 236 237 240 240 239 239 237 232 236 243 243 242 241 239 240 244 247 252 253 247 245 249 252 253 252 252 253 253 251 250 250 252 255 255 253 253 255 257 258 260 260 261 262 263 263 263 264 264 264 264 265 265 266 266 266 266 266 266 266 266 267 266 267 267 268 270 272 273 275 276 277 278 279 281 282 283 283 283
227 230 231 231 230 230 232 236 240 242 246 247 247 248 247 245 246 248 246 243 243 241 238 241 247 252 254 250 246 247 250 253 253 251 249 249 249 247 248 250 253 255 255 254 255 257 258 260 261 261 262 262 263 264 265 265 265 265 265 265 266 266 266 266 266 266 266 266 267 267 267 267 268 269 270 272 273 274 275 277 278 279 280 281 281 281
230 232 233 233 233 233 232 235 238 241 245 247 247 248 249 251 253 253 250 247 246 247 242 237 245 251 253 251 248 248 250 253 257 256 251 249 249 246 246 249 252 256 259 258 257 258 259 260 261 262 263 263 263 263 264 265 266 266 267 266 266 266 266 267 267 267 268 268 268 268 268 268 269 269 270 270 271 272 273 275 276 276 277 278 278 279
230 233 234 233 234 234 233 234 236 238 243 247 248 249 249 251 251 252 252 250 248 250 248 239 240 245 248 249 250 252 252 255 260 263 260 255 253 249 247 250 255 259 262 262 260 259 259 260 261 262 263 264 264 264 264 264 265 266 266 266 266 266 266 266 267 267 268 268 268 269 268 269 269 269 270 270 270 270 271 272 273 274 275 275 276 277
230 232 233 233 234 234 234 235 236 236 239 245 249 251 252 253 252 252 253 252 251 252 252 247 242 240 243 246 250 254 254 255 259 262 263 261 256 252 249 253 259 261 260 261 261 261 260 259 259 260 261 263 263 264 264 264 264 264 264 265 265 265 266 266 266 266 266 267 267 267 267 267 267 268 268 268 268 268 269 269 270 271 272 273 275 276
230 232 233 233 233 234 234 235 237 238 238 241 244 248 251 253 255 254 254 254 255 255 254 254 249 243 239 242 248 256 258 260 261 260 264 267 263 257 254 255 259 261 258 257 258 259 260 260 259 259 260 261 262 263 263 263 264 264 263 263 263 264 264 265 265 265 265 265 266 266 266 266 266 266 266 266 266 266 266 267 268 269 270 271 273 274
230 230 232 234 234 235 237 237 238 239 238 238 240 243 246 250 253 255 255 255 256 257 257 258 256 247 239 240 245 251 258 263 265 263 262 265 265 263 260 257 257 259 258 256 256 257 259 261 262 262 261 260 261 262 262 263 263 263 263 263 263 263 263 264 264 264 265 265 265 265 265 265 265 265 264 264 265 265 266 266 267 267 269 270 271 272
229 226 228 232 233 234 236 237 238 239 238 237 238 240 241 244 248 251 254 255 257 260 259 260 259 250 241 244 246 246 252 256 260 263 260 258 260 263 262 256 255 257 256 253 253 256 258 260 261 261 259 259 258 259 260 261 262 262 263 263 263 263 263 264 264 264 264 265 265 265 265 265 265 264 264 264 264 264 265 265 266 267 268 269 270 271
224 222 222 226 229 231 232 231 233 235 235 235 236 238 239 242 245 248 253 255 257 261 259 259 260 251 245 250 251 246 249 252 253 256 257 256 258 260 258 254 253 255 254 251 249 250 251 253 256 256 256 256 257 256 257 258 259 261 262 262 263 263 263 264 264 264 264 264 264 265 265 265 265 265 264 264 264 263 264 264 265 266 267 269 270 271
223 224 224 224 226 227 226 224 225 227 230 233 234 236 239 241 244 247 252 254 256 259 260 261 261 253 248 254 256 252 252 254 254 255 255 256 259 260 259 256 253 253 253 251 248 244 243 244 247 250 252 253 254 254 255 256 257 258 260 261 262 262 263 263 263 263 263 263 263 263 264 264 264 265 264 264 264 264 264 264 265 266 268 269 270 271
226 229 230 231 231 229 229 230 232 234 236 235 234 236 239 242 244 247 251 255 256 259 261 263 263 258 252 255 259 259 258 257 257 258 258 256 257 258 259 260 259 257 255 252 248 244 241 240 241 244 246 250 252 253 254 255 255 257 258 260 261 261 261 262 262 262 262 262 262 262 263 263 264 264 265 265 265 265 265 265 266 267 268 269 270 271
226 228 230 233 235 236 237 238 239 239 239 237 237 239 243 245 247 249 252 255 258 262 264 265 267 265 258 256 260 262 262 260 259 260 261 260 260 260 260 260 261 262 259 255 252 249 247 245 244 243 242 245 248 250 252 254 256 257 259 260 262 262 262 261 261 261 262 262 262 262 263 264 264 265 265 265 266 266 266 266 266 267 267 268 269 270
226 228 229 232 235 236 238 239 239 239 240 241 241 242 245 248 251 254 255 256 260 265 266 267 271 271 264 259 262 265 266 264 262 262 262 263 265 265 263 261 260 260 260 257 254 252 251 251 250 249 247 246 246 248 249 252 256 258 260 262 263 264 265 265 264 264 264 264 265 264 263 263 264 264 265 265 266 266 266 266 266 267 267 268 269 269
228 229 230 232 235 237 238 239 240 241 243 244 245 245 247 249 252 255 256 257 260 265 267 268 272 272 268 264 264 267 269 268 267 265 264 265 267 267 266 262 259 259 259 258 256 253 252 252 253 253 253 252 252 251 251 253 256 258 261 263 264 265 266 268 268 269 269 269 269 268 267 266 264 264 264 264 265 265 266 266 267 268 269 270 271 271
231 232 233 233 235 237 239 242 243 243 245 247 248 248 249 250 253 256 258 258 260 263 265 268 270 271 270 268 266 267 268 269 269 269 268 268 269 269 268 265 261 259 258 259 258 257 255 254 255 255 256 256 255 255 255 255 256 258 259 261 263 264 266 267 269 270 271 272 272 271 271 269 268 266 265 265 266 266 267 267 268 269 270 271 271 272
232 234 236 236 237 238 240 244 245 246 247 249 250 251 251 252 253 256 258 259 261 263 264 266 267 267 268 269 269 267 266 266 268 269 269 269 269 269 269 267 264 261 260 259 259 259 259 259 259 260 260 260 258 257 256 256 256 257 258 259 260 262 263 265 266 268 269 271 272 272 271 271 270 269 268 268 269 270 270 270 271 271 272 273 273 272
231 234 236 236 237 238 240 241 243 244 245 246 247 249 250 252 254 257 260 261 262 263 264 264 265 265 266 269 270 267 264 264 266 267 268 267 266 265 264 264 264 264 263 262 261 260 260 260 261 262 263 263 262 259 257 257 256 257 258 259 260 261 262 263 264 266 267 268 270 271 272 271 271 270 269 269 270 271 271 272 272 273 273 273 273 273
231 234 235 235 236 237 238 239 240 242 244 245 245 248 251 254 257 259 260 261 262 263 264 265 266 267 266 267 267 266 263 263 264 266 269 269 267 264 261 260 261 262 263 265 265 263 262 262 262 263 264 264 263 261 259 258 258 258 259 261 262 263 264 265 266 267 268 268 269 270 271 272 272 272 271 270 270 270 271 271 271 271 272 272 272 272
230 233 235 237 238 239 241 243 245 247 249 249 249 252 254 256 257 258 259 260 262 263 265 266 266 266 265 265 266 265 263 262 263 265 268 270 270 268 265 263 261 261 263 264 264 264 264 264 264 264 264 265 264 264 263 262 261 261 261 262 263 264 264 265 266 267 268 269 270 270 270 271 272 272 272 272 272 271 271 271 271 271 271 271 271 272
228 231 234 236 237 238 240 243 246 248 248 249 250 252 253 253 255 257 258 258 259 261 263 264 265 265 267 267 267 266 264 262 262 263 264 267 270 271 271 269 268 267 266 265 264 264 265 266 265 264 264 265 265 265 265 265 265 264 264 264 264 263 263 263 264 265 267 268 269 269 269 269 270 270 271 271 272 272 272 272 272 272 272 272 272 272
228 230 232 233 234 235 236 239 243 245 244 243 245 247 248 250 252 255 256 257 258 261 263 264 265 265 267 268 268 268 268 266 264 263 263 264 267 270 272 272 272 272 272 271 269 268 268 268 267 266 266 265 266 266 266 266 265 265 265 266 266 265 264 263 263 262 263 263 264 265 266 267 267 268 268 269 270 270 271 271 271 272 272 272 272 272
230 231 232 233 233 234 236 238 241 242 241 241 243 245 247 250 252 255 257 257 257 259 262 264 266 267 268 269 270 269 269 268 267 265 265 265 267 270 272 272 272 273 275 275 274 272 271 270 270 270 269 268 268 268 268 268 267 266 266 267 267 267 267 266 265 263 261 260 260 261 262 263 264 265 266 267 268 269 269 269 268 268 268 269 269 270
233 234 236 237 236 236 238 240 242 242 242 243 245 246 248 250 252 255 256 256 256 260 263 266 267 268 268 268 269 269 269 269 269 269 268 268 269 270 272 273 273 272 273 274 275 274 273 272 271 271 271 270 270 270 270 270 269 268 268 267 268 269 269 269 268 267 265 263 261 260 260 260 261 262 262 263 265 266 267 268 267 266 266 266 266 267
234 236 237 239 239 239 240 243 244 243 243 244 244 244 247 250 252 255 257 259 261 264 266 267 267 267 266 266 266 267 267 268 269 269 269 269 270 270 271 273 274 273 273 273 274 274 274 274 273 272 271 271 271 270 270 270 271 271 271 270 269 269 269 269 269 268 268 266 264 262 261 261 261 262 261 261 261 262 263 264 265 266 266 266 266 266
235 236 237 238 238 239 240 243 244 244 243 244 244 244 249 252 254 256 260 263 266 266 265 265 266 265 266 267 267 267 268 268 269 269 269 269 270 270 270 271 273 274 274 273 273 273 274 274 274 274 273 273 273 272 272 271 271 271 270 270 270 269 269 268 268 268 268 267 266 265 263 263 263 263 263 262 261 260 260 261 262 263 264 265 265 266
236 237 239 239 240 242 243 245 246 245 244 247 247 248 252 254 255 257 261 265 266 263 262 263 264 264 266 267 267 267 268 269 270 270 270 270 269 270 270 270 271 273 274 273 272 272 272 272 273 273 274 274 274 274 273 273 272 272 271 270 269 268 268 268 267 267 267 267 267 266 266 265 264 264 264 264 264 263 262 262 261 261 262 262 263 263
237 238 240 240 242 244 245 246 247 246 246 249 250 251 254 256 258 260 262 262 259 258 257 259 261 263 264 266 267 267 268 270 271 272 272 272 272 272 272 273 273 274 274 274 273 272 271 271 271 271 272 272 273 273 272 272 271 271 272 272 271 270 268 267 266 266 266 266 266 266 266 265 265 264 264 264 264 264 264 264 263 262 262 261 261 262
235 237 239 240 241 243 244 244 245 246 247 250 252 254 256 259 259 257 256 253 250 251 253 255 258 261 263 265 267 268 269 271 272 273 275 275 275 275 275 275 275 274 274 275 274 273 271 270 270 270 271 271 271 271 270 270 270 269 269 270 271 271 271 269 268 266 265 265 265 265 265 265 265 265 265 265 264 264 264 265 265 265 265 264 263 263
233 235 237 239 240 241 243 244 246 250 251 251 254 256 255 254 251 249 249 250 251 252 254 255 257 260 262 265 267 267 269 270 272 274 276 278 279 280 280 280 278 276 274 273 273 273 271 270 269 269 269 270 270 270 270 269 269 268 269 269 269 270 271 272 272 271 269 268 267 266 266 266 266 266 266 266 266 266 265 266 266 267 268 268 268 267
234 236 238 240 241 243 245 245 247 250 250 249 250 251 251 250 250 251 253 255 255 255 256 256 258 261 264 267 268 269 270 272 274 276 277 279 281 282 283 284 283 280 275 272 270 270 270 269 269 268 269 270 271 271 271 270 269 269 269 270 270 270 270 271 273 273 273 273 272 271 270 269 269 269 269 269 268 268 268 268 268 269 270 270 271 271
234 236 239 241 242 244 245 245 244 246 249 250 250 251 252 252 253 254 257 258 257 257 257 258 261 265 268 269 270 271 273 274 276 278 278 280 281 282 284 286 285 280 275 271 269 267 268 269 269 268 269 270 270 271 272 273 272 272 272 273 274 274 274 274 274 275 274 274 274 274 274 273 273 274 273 273 273 272 272 271 271 271 272 272 273 273
234 237 239 241 242 244 244 245 245 246 249 252 253 253 253 254 255 257 259 259 260 259 260 261 263 266 268 269 270 271 273 275 277 278 279 280 280 282 285 286 283 278 275 273 271 269 268 268 269 270 270 271 272 273 273 273 274 275 275 276 277 277 277 278 278 279 279 278 276 275 275 275 275 275 274 274 274 273 273 273 272 272 272 273 273 274
235 239 241 243 245 246 246 246 247 247 248 251 254 255 256 257 259 260 260 261 261 261 262 262 264 266 268 269 270 271 273 275 276 277 279 279 280 283 285 284 280 276 274 273 272 271 270 270 271 271 271 272 275 276 276 276 276 277 277 277 278 279 279 280 281 283 283 281 279 277 275 273 272 270 270 270 270 270 270 270 271 271 271 271 272 272
238 241 243 245 247 248 248 248 249 249 250 252 255 257 258 258 259 260 261 261 262 262 263 264 266 268 270 270 271 272 273 275 276 277 278 279 280 282 283 281 278 276 274 271 270 270 270 271 272 273 273 273 274 275 276 276 276 277 278 278 279 280 280 280 280 280 279 276 272 269 268 267 265 264 263 263 264 266 268 269 270 270 270 271 271 271
241 244 246 248 249 250 250 251 252 253 253 254 256 257 258 259 260 261 262 263 263 264 265 266 268 270 270 271 272 273 274 275 276 277 278 279 279 280 280 278 278 277 273 269 268 268 268 268 269 272 274 275 275 275 275 275 276 276 277 277 277 278 278 277 275 274 271 268 266 263 263 264 265 264 264 263 264 265 267 270 271 272 272 272 273 273
245 247 249 251 252 253 252 253 254 255 255 256 257 258 259 260 261 262 263 264 265 266 267 267 268 269 270 271 272 273 274 276 277 278 279 279 278 277 275 274 276 277 273 269 268 268 268 267 267 268 271 273 274 274 274 275 276 276 277 277 276 275 275 274 273 272 270 269 268 267 266 265 265 265 265 266 266 266 266 267 270 272 273 273 273 274
Height
5756 5756 5755 5760 5767 5772 5776 5779 5785 5790 5792 5793 5794 5795 5798 5800 5802 5805 5808 5807 5806 5810 5814 5817 5819 5820 5824 5831 5834 5833 5834 5836 5838 5841 5842 5844 5846 5847 5848 5848 5849 5850 5851 5850 5850 5851 5851 5851 5852 5853 5853 5853 5855 5855 5855 5857 5858 5858 5858 5859 5859 5859 5859 5860 5860 5860 5860 5860 5859 5859 5860 5860 5859 5859 5858 5857 5856 5855 5855 5853 5853 5853 5853 5853 5852 5852
5749 5750 5755 5762 5767 5769 5772 5775 5780 5784 5786 5787 5790 5793 5795 5796 5799 5802 5803 5802 5801 5804 5809 5811 5813 5815 5818 5825 5830 5830 5831 5833 5836 5839 5841 5843 5844 5844 5845 5845 5846 5847 5847 5848 5848 5849 5848 5848 5848 5849 5850 5851 5852 5852 5852 5854 5855 5855 5855 5856 5857 5856 5857 5857 5858 5858 5858 5857 5857 5857 5857 5857 5857 5857 5856 5856 5855 5853 5852 5851 5850 5850 5851 5851 5850 5849
5741 5745 5755 5760 5762 5764 5766 5770 5775 5778 5780 5781 5785 5789 5790 5792 5796 5798 5796 5796 5797 5799 5801 5804 5808 5811 5814 5818 5825 5828 5829 5831 5833 5835 5838 5840 5840 5841 5841 5842 5843 5843 5844 5845 5846 5846 5845 5845 5845 5845 5847 5848 5848 5849 5850 5850 5851 5851 5852 5853 5854 5854 5854 5854 5855 5855 5855 5854 5855 5855 5855 5855 5855 5855 5854 5854 5853 5852 5850 5849 5849 5849 5848 5848 5848 5847
5737 5744 5752 5756 5758 5760 5762 5766 5769 5772 5775 5776 5779 5783 5786 5790 5792 5792 5791 5791 5792 5793 5795 5799 5802 5806 5809 5812 5820 5826 5827 5828 5829 5831 5834 5837 5837 5837 5838 5839 5840 5840 5842 5843 5843 5843 5842 5842 5842 5842 5843 5844 5844 5846 5847 5847 5848 5848 5849 5850 5850 5851 5851 5852 5852 5852 5852 5852 5852 5853 5853 5853 5853 5853 5852 5852 5851 5849 5847 5847 5847 5846 5846 5846 5846 5845
5736 5742 5748 5752 5755 5756 5759 5762 5764 5767 5770 5772 5775 5779 5783 5787 5788 5789 5787 5786 5787 5787 5791 5794 5795 5800 5805 5808 5815 5822 5823 5824 5826 5827 5829 5832 5834 5834 5834 5836 5838 5838 5839 5839 5839 5840 5839 5838 5838 5839 5840 5840 5841 5842 5843 5843 5844 5845 5846 5847 5847 5847 5848 5849 5849 5849 5849 5849 5850 5850 5850 5850 5850 5850 5850 5850 5848 5845 5845 5845 5845 5844 5844 5844 5843 5843
5735 5739 5744 5748 5749 5751 5754 5758 5761 5765 5767 5768 5771 5774 5779 5783 5785 5785 5783 5781 5781 5784 5787 5788 5789 5796 5802 5804 5809 5816 5819 5820 5821 5822 5825 5828 5830 5830 5832 5834 5835 5835 5835 5835 5835 5836 5835 5835 5834 5835 5837 5837 5838 5838 5839 5840 5841 5842 5843 5843 5844 5844 5845 5846 5847 5846 5846 5846 5847 5847 5847 5847 5847 5847 5847 5847 5845 5842 5842 5842 5842 5842 5841 5840 5840 5840
5731 5736 5741 5744 5744 5746 5749 5752 5757 5761 5764 5765 5766 5770 5774 5777 5779 5779 5778 5776 5776 5780 5781 5782 5785 5791 5796 5800 5805 5810 5814 5817 5817 5817 5821 5824 5826 5828 5829 5831 5831 5831 5831 5831 5832 5832 5831 5831 5830 5831 5832 5833 5834 5835 5835 5836 5837 5838 5839 5840 5841 5841 5842 5842 5843 5843 5843 5843 5843 5844 5844 5843 5843 5844 5844 5843 5842 5840 5839 5839 5839 5839 5838 5838 5837 5837
5728 5733 5736 5739 5742 5742 5744 5748 5753 5758 5761 5760 5762 5766 5769 5771 5773 5773 5773 5770 5770 5775 5775 5776 5782 5785 5790 5797 5802 5804 5807 5812 5814 5814 5816 5819 5822 5825 5826 5827 5827 5826 5826 5827 5827 5828 5828 5828 5826 5826 5828 5828 5830 5832 5833 5833 5834 5835 5836 5837 5838 5838 5839 5839 5839 5840 5840 5839 5839 5840 5840 5840 5840 5840 5840 5839 5838 5838 5837 5836 5836 5835 5835 5835 5834 5833
5728 5729 5731 5737 5738 5738 5741 5746 5749 5753 5755 5755 5756 5760 5763 5765 5767 5768 5766 5764 5766 5769 5768 5774 5780 5779 5784 5794 5797 5797 5800 5806 5811 5811 5811 5813 5817 5821 5823 5823 5821 5820 5821 5822 5823 5824 5825 5825 5823 5822 5823 5823 5825 5828 5829 5831 5831 5831 5832 5833 5835 5835 5835 5835 5835 5835 5836 5835 5835 5835 5836 5836 5836 5835 5835 5835 5835 5834 5834 5833 5833 5832 5832 5831 5830 5829
5719 5723 5728 5731 5730 5733 5739 5741 5744 5747 5748 5750 5752 5754 5758 5760 5762 5763 5761 5762 5764 5762 5763 5774 5779 5774 5778 5789 5790 5790 5795 5801 5805 5808 5808 5809 5811 5815 5819 5818 5816 5815 5816 5817 5818 5819 5820 5821 5820 5818 5818 5819 5821 5823 5825 5826 5827 5828 5829 5829 5831 5831 5831 5831 5830 5830 5831 5831 5830 5830 5831 5832 5832 5832 5831 5831 5831 5831 5830 5830 5829 5829 5828 5827 5826 5825
5710 5717 5720 5720 5723 5731 5735 5734 5736 5739 5741 5745 5747 5749 5753 5755 5757 5757 5756 5759 5758 5754 5762 5775 5778 5771 5770 5781 5784 5784 5790 5796 5799 5804 5805 5805 5805 5809 5812 5813 5812 5811 5810 5811 5813 5814 5815 5816 5817 5816 5815 5815 5816 5818 5820 5821 5822 5823 5824 5825 5826 5827 5827 5827 5826 5826 5826 5826 5826 5826 5826 5827 5828 5828 5828 5828 5828 5827 5826 5825 5825 5824 5823 5823 5822 5821
5703 5709 5710 5715 5722 5726 5727 5727 5729 5732 5736 5740 5742 5746 5749 5749 5752 5751 5751 5754 5749 5751 5764 5772 5772 5764 5760 5772 5780 5779 5785 5790 5792 5797 5801 5801 5801 5803 5805 5806 5806 5805 5805 5806 5807 5809 5810 5810 5812 5812 5812 5812 5812 5814 5815 5816 5817 5818 5819 5820 5821 5822 5822 5823 5823 5822 5823 5822 5822 5822 5822 5823 5823 5823 5823 5823 5824 5823 5822 5821 5820 5819 5819 5819 5818 5817
5698 5704 5708 5714 5717 5719 5720 5721 5723 5728 5732 5736 5739 5743 5744 5744 5746 5744 5745 5747 5744 5750 5761 5764 5763 5755 5752 5769 5777 5775 5779 5783 5787 5790 5794 5797 5797 5797 5798 5798 5800 5800 5799 5800 5801 5803 5804 5804 5806 5806 5807 5807 5807 5809 5810 5811 5812 5812 5813 5814 5815 5816 5817 5818 5818 5818 5819 5819 5819 5818 5818 5818 5818 5818 5818 5818 5818 5818 5817 5817 5816 5815 5815 5814 5814 5813
5694 5698 5700 5705 5708 5713 5714 5715 5722 5728 5732 5734 5737 5740 5739 5738 5739 5737 5739 5741 5741 5748 5754 5755 5755 5746 5749 5767 5772 5770 5774 5777 5782 5784 5786 5791 5791 5791 5792 5791 5794 5794 5793 5794 5795 5797 5798 5798 5799 5800 5801 5802 5802 5804 5805 5806 5807 5807 5808 5809 5810 5811 5812 5813 5813 5814 5814 5815 5815 5814 5814 5813 5813 5813 5813 5812 5812 5812 5812 5812 5811 5811 5811 5810 5810 5809
5689 5689 5691 5699 5707 5712 5714 5717 5723 5727 5728 5729 5732 5732 5730 5731 5733 5733 5736 5737 5738 5744 5747 5750 5748 5740 5746 5763 5767 5767 5769 5770 5775 5778 5780 5784 5785 5785 5785 5784 5786 5787 5787 5788 5788 5789 5790 5791 5793 5793 5794 5796 5797 5798 5799 5800 5802 5803 5803 5804 5805 5806 5806 5807 5808 5808 5809 5809 5809 5809 5808 5808 5807 5807 5807 5807 5807 5807 5807 5806 5806 5807 5807 5806 5806 5805
5685 5685 5691 5703 5709 5713 5716 5717 5718 5720 5719 5720 5722 5721 5721 5727 5731 5730 5731 5733 5735 5738 5740 5743 5741 5736 5743 5759 5764 5764 5763 5763 5768 5773 5775 5777 5778 5779 5779 5779 5779 5779 5780 5781 5781 5782 5783 5785 5787 5787 5788 5791 5791 5792 5793 5795 5796 5797 5798 5798 5799 5799 5800 5800 5801 5802 5802 5802 5803 5803 5803 5803 5802 5802 5802 5802 5802 5802 5802 5802 5802 5802 5802 5802 5801 5801
5681 5682 5691 5700 5703 5709 5713 5712 5712 5714 5713 5713 5714 5714 5719 5725 5725 5725 5727 5729 5730 5729 5732 5737 5736 5735 5743 5754 5759 5759 5758 5758 5760 5765 5770 5770 5771 5774 5774 5773 5773 5772 5772 5773 5774 5776 5777 5779 5780 5781 5783 5785 5785 5786 5787 5788 5789 5790 5792 5792 5793 5793 5794 5794 5795 5795 5796 5796 5797 5797 5797 5797 5797 5797 5797 5797 5797 5797 5797 5797 5797 5797 5797 5797 5796 5796
5678 5681 5687 5693 5697 5703 5706 5704 5705 5704 5702 5702 5703 5709 5717 5717 5716 5719 5721 5722 5724 5722 5727 5735 5735 5736 5742 5747 5753 5755 5756 5756 5755 5758 5763 5764 5766 5768 5768 5767 5766 5765 5765 5766 5768 5770 5772 5774 5774 5775 5777 5778 5779 5780 5781 5782 5782 5784 5785 5786 5786 5787 5787 5788 5788 5789 5790 5790 5791 5791 5792 5792 5792 5793 5793 5793 5792 5792 5791 5792 5791 5791 5791 5791 5790 5790
5675 5677 5681 5688 5692 5695 5696 5695 5696 5696 5694 5694 5697 5704 5709 5707 5710 5714 5713 5715 5720 5718 5722 5731 5732 5733 5737 5744 5750 5752 5753 5754 5751 5752 5756 5759 5762 5763 5763 5762 5760 5759 5758 5759 5761 5764 5766 5768 5769 5770 5771 5771 5772 5774 5775 5776 5777 5778 5778 5779 5779 5779 5780 5781 5782 5783 5783 5784 5785 5785 5786 5786 5787 5787 5787 5787 5787 5786 5786 5786 5785 5785 5785 5784 5784 5784
5670 5671 5675 5682 5684 5685 5685 5685 5687 5692 5694 5694 5696 5699 5701 5702 5707 5708 5706 5711 5715 5714 5716 5722 5725 5727 5734 5743 5747 5746 5749 5750 5746 5747 5750 5752 5755 5757 5758 5757 5753 5753 5753 5753 5755 5758 5760 5762 5764 5765 5765 5764 5765 5766 5768 5769 5769 5771 5771 5771 5772 5773 5773 5774 5775 5776 5777 5777 5778 5779 5779 5780 5780 5780 5780 5780 5780 5780 5780 5780 5779 5779 5778 5778 5778 5777
5663 5665 5669 5674 5675 5673 5675 5679 5685 5690 5693 5694 5695 5696 5696 5699 5701 5701 5701 5703 5705 5708 5710 5712 5716 5723 5735 5742 5743 5743 5746 5744 5741 5744 5745 5744 5746 5749 5751 5751 5747 5746 5747 5749 5751 5752 5754 5756 5758 5759 5758 5757 5758 5759 5760 5761 5762 5763 5764 5764 5765 5766 5766 5767 5768 5769 5770 5770 5771 5772 5772 5772 5773 5773 5773 5773 5773 5774 5774 5773 5773 5773 5772 5773 5772 5772
5657 5660 5663 5665 5666 5667 5672 5679 5682 5682 5684 5689 5691 5691 5693 5694 5692 5692 5692 5694 5698 5701 5704 5705 5707 5719 5735 5739 5739 5742 5743 5740 5737 5738 5740 5739 5740 5742 5743 5744 5742 5740 5742 5744 5746 5748 5748 5750 5751 5752 5751 5750 5751 5752 5753 5754 5755 5755 5756 5757 5758 5759 5760 5761 5761 5762 5763 5764 5764 5765 5765 5765 5765 5765 5765 5766 5766 5766 5766 5766 5766 5766 5766 5767 5766 5766
5654 5655 5656 5658 5661 5666 5669 5671 5671 5671 5676 5681 5681 5682 5685 5685 5685 5687 5687 5690 5694 5693 5698 5700 5697 5715 5736 5735 5733 5739 5738 5736 5734 5732 5734 5735 5736 5738 5737 5736 5736 5736 5737 5738 5740 5743 5744 5744 5745 5744 5743 5743 5744 5746 5746 5747 5747 5748 5749 5750 5751 5752 5753 5754 5755 5756 5757 5757 5758 5758 5758 5758 5758 5758 5758 5759 5759 5759 5759 5759 5759 5759 5760 5760 5760 5760
5646 5646 5649 5652 5657 5660 5661 5662 5663 5665 5667 5670 5673 5677 5680 5681 5684 5685 5682 5684 5686 5685 5692 5693 5689 5711 5733 5726 5725 5733 5731 5730 5730 5727 5730 5732 5733 5735 5733 5731 5731 5731 5733 5734 5735 5737 5738 5739 5739 5737 5737 5737 5738 5739 5740 5741 5741 5741 5742 5743 5745 5747 5747 5748 5749 5749 5750 5751 5751 5751 5751 5751 5751 5751 5751 5752 5752 5752 5752 5752 5752 5752 5753 5753 5753 5753
5640 5640 5643 5647 5649 5651 5653 5654 5655 5657 5661 5666 5672 5675 5675 5677 5679 5678 5676 5678 5679 5680 5687 5686 5685 5707 5723 5716 5717 5724 5721 5722 5724 5723 5727 5729 5729 5730 5729 5728 5728 5728 5729 5730 5730 5732 5732 5732 5732 5731 5731 5732 5732 5734 5734 5735 5736 5736 5737 5737 5739 5740 5741 5741 5742 5743 5743 5743 5743 5744 5744 5743 5743 5743 5744 5745 5745 5745 5745 5745 5746 5746 5746 5746 5746 5746
5636 5636 5639 5642 5642 5643 5646 5649 5653 5657 5662 5665 5667 5668 5670 5672 5673 5673 5673 5673 5673 5677 5681 5679 5681 5699 5710 5709 5712 5715 5712 5715 5717 5718 5722 5723 5723 5725 5725 5724 5725 5725 5726 5726 5726 5726 5726 5725 5725 5726 5727 5727 5728 5729 5729 5729 5730 5730 5731 5732 5732 5733 5734 5735 5736 5736 5736 5736 5736 5737 5736 5736 5737 5736 5737 5737 5738 5738 5738 5739 5739 5739 5739 5739 5739 5739
5630 5632 5635 5638 5640 5642 5646 5650 5654 5655 5656 5657 5661 5665 5666 5666 5667 5667 5666 5665 5670 5674 5673 5673 5679 5688 5698 5704 5709 5708 5705 5707 5711 5713 5714 5716 5717 5719 5720 5720 5720 5721 5721 5721 5721 5720 5719 5719 5720 5720 5722 5723 5723 5723 5723 5723 5724 5725 5726 5726 5726 5726 5728 5729 5729 5729 5729 5729 5729 5730 5730 5730 5730 5730 5730 5730 5730 5731 5731 5731 5731 5731 5731 5731 5731 5731
5625 5627 5631 5634 5637 5640 5642 5644 5645 5646 5648 5652 5657 5660 5660 5660 5660 5659 5659 5664 5669 5666 5664 5671 5677 5678 5688 5700 5704 5703 5700 5700 5705 5707 5707 5709 5710 5710 5711 5713 5714 5713 5713 5714 5715 5714 5713 5714 5715 5716 5716 5716 5716 5716 5716 5717 5719 5720 5720 5720 5720 5721 5721 5721 5722 5723 5723 5723 5723 5723 5723 5723 5723 5723 5723 5723 5723 5723 5723 5723 5723 5724 5724 5723 5723 5723
5620 5623 5628 5630 5632 5635 5635 5634 5636 5640 5644 5646 5649 5652 5654 5654 5653 5652 5655 5661 5663 5658 5661 5670 5671 5670 5681 5693 5696 5697 5697 5695 5698 5699 5699 5702 5703 5700 5701 5704 5705 5704 5704 5705 5705 5706 5707 5708 5708 5709 5709 5709 5709 5709 5711 5712 5714 5715 5714 5714 5714 5714 5714 5714 5715 5716 5716 5717 5717 5716 5717 5717 5717 5717 5717 5716 5716 5716 5716 5716 5716 5716 5716 5716 5716 5715
5615 5618 5622 5624 5626 5629 5627 5626 5631 5637 5638 5639 5642 5646 5647 5648 5648 5648 5651 5656 5658 5656 5661 5666 5665 5665 5674 5682 5687 5693 5693 5689 5689 5691 5694 5695 5693 5691 5693 5694 5695 5695 5695 5694 5695 5699 5702 5701 5700 5700 5701 5701 5702 5703 5705 5707 5708 5708 5708 5708 5708 5708 5708 5708 5709 5709 5709 5709 5709 5709 5709 5710 5710 5710 5710 5710 5710 5709 5709 5709 5709 5709 5709 5709 5709 5708
5612 5614 5616 5619 5620 5622 5622 5624 5627 5630 5631 5632 5635 5638 5640 5641 5643 5645 5649 5654 5655 5655 5659 5661 5658 5660 5667 5674 5680 5686 5685 5683 5684 5686 5690 5689 5685 5684 5684 5684 5684 5686 5685 5684 5688 5693 5694 5692 5691 5691 5691 5693 5695 5696 5698 5699 5700 5700 5701 5701 5701 5702 5702 5702 5702 5702 5702 5701 5701 5701 5701 5702 5703 5703 5703 5703 5703 5702 5703 5702 5702 5703 5702 5702 5702 5701
5607 5607 5609 5612 5613 5615 5620 5621 5621 5624 5625 5624 5625 5629 5633 5636 5640 5645 5649 5651 5651 5652 5653 5652 5650 5657 5667 5669 5668 5672 5677 5680 5680 5680 5680 5680 5679 5677 5675 5675 5677 5676 5674 5676 5682 5685 5683 5681 5682 5683 5682 5684 5687 5689 5690 5691 5691 5692 5693 5694 5694 5695 5695 5695 5695 5695 5695 5694 5693 5693 5693 5693 5694 5695 5695 5695 5695 5695 5695 5695 5695 5695 5694 5694 5694 5694
5601 5601 5603 5606 5608 5611 5616 5615 5616 5618 5613 5611 5618 5628 5632 5636 5640 5642 5643 5645 5646 5646 5645 5645 5648 5656 5661 5658 5657 5664 5671 5674 5674 5672 5669 5667 5666 5665 5665 5668 5670 5667 5665 5670 5675 5673 5670 5672 5675 5675 5676 5677 5677 5679 5681 5682 5683 5685 5686 5686 5686 5686 5686 5686 5686 5687 5686 5686 5686 5685 5685 5684 5684 5685 5686 5686 5686 5686 5686 5686 5686 5685 5685 5685 5685 5685
5593 5595 5597 5599 5602 5606 5609 5610 5610 5605 5600 5608 5623 5630 5631 5633 5634 5634 5635 5639 5641 5640 5639 5640 5643 5647 5647 5647 5651 5657 5662 5665 5665 5663 5658 5652 5649 5650 5653 5658 5662 5662 5661 5664 5665 5661 5660 5664 5666 5666 5667 5667 5667 5668 5669 5671 5674 5676 5677 5677 5677 5677 5676 5676 5677 5677 5677 5677 5677 5677 5677 5676 5676 5676 5676 5675 5676 5677 5677 5677 5676 5676 5675 5675 5676 5676
5585 5588 5590 5592 5595 5599 5601 5601 5597 5593 5598 5614 5625 5625 5625 5627 5628 5627 5628 5632 5635 5635 5633 5633 5635 5637 5638 5641 5644 5647 5650 5653 5653 5650 5646 5642 5639 5638 5642 5647 5651 5654 5654 5654 5655 5655 5655 5655 5656 5655 5656 5657 5657 5657 5658 5660 5662 5665 5666 5666 5666 5666 5666 5666 5667 5667 5667 5668 5668 5667 5667 5667 5668 5668 5667 5666 5666 5667 5668 5667 5666 5665 5665 5665 5666 5667
5580 5582 5583 5586 5588 5591 5591 5590 5589 5590 5601 5612 5616 5618 5621 5622 5621 5620 5620 5624 5629 5627 5625 5625 5628 5631 5633 5634 5636 5637 5638 5638 5636 5637 5639 5636 5631 5630 5634 5638 5640 5641 5641 5643 5645 5646 5646 5645 5645 5646 5646 5646 5647 5647 5648 5650 5652 5653 5654 5654 5654 5655 5656 5656 5658 5658 5658 5658 5658 5657 5657 5657 5658 5658 5658 5657 5657 5657 5658 5657 5656 5655 5654 5655 5656 5656
5576 5576 5578 5580 5582 5585 5585 5585 5586 5589 5597 5606 5611 5615 5617 5615 5614 5613 5612 5615 5620 5619 5619 5621 5623 5625 5626 5626 5626 5627 5626 5623 5624 5630 5633 5629 5626 5626 5627 5628 5631 5632 5631 5631 5633 5634 5636 5637 5636 5636 5636 5636 5637 5637 5638 5640 5641 5642 5642 5641 5640 5641 5643 5645 5647 5647 5648 5649 5648 5648 5647 5647 5648 5648 5648 5647 5647 5647 5647 5647 5647 5646 5645 5646 5646 5646
5571 5572 5575 5575 5578 5581 5581 5582 5583 5584 5594 5605 5609 5611 5611 5608 5607 5605 5601 5605 5613 5617 5617 5616 5615 5616 5617 5617 5616 5617 5617 5614 5617 5625 5626 5622 5622 5625 5621 5618 5621 5623 5622 5622 5621 5622 5624 5625 5626 5626 5626 5626 5627 5627 5628 5629 5630 5630 5630 5630 5629 5630 5631 5633 5634 5634 5636 5637 5637 5637 5637 5637 5638 5639 5638 5638 5637 5636 5636 5636 5636 5636 5635 5636 5636 5637
5566 5568 5570 5571 5574 5576 5577 5578 5578 5582 5594 5602 5603 5605 5603 5599 5599 5597 5593 5599 5612 5616 5611 5607 5606 5607 5608 5608 5610 5611 5609 5607 5610 5617 5617 5615 5618 5620 5616 5612 5610 5610 5612 5612 5612 5612 5611 5612 5614 5615 5616 5616 5616 5617 5618 5619 5619 5619 5619 5618 5618 5620 5621 5622 5622 5622 5623 5624 5624 5624 5624 5625 5626 5627 5628 5628 5628 5627 5626 5625 5625 5625 5625 5625 5625 5626
5561 5563 5564 5566 5569 5571 5572 5574 5575 5582 5593 5595 5595 5599 5594 5589 5592 5591 5589 5598 5609 5607 5601 5598 5598 5599 5600 5602 5604 5604 5601 5601 5604 5607 5609 5611 5613 5612 5610 5607 5603 5600 5601 5602 5602 5603 5602 5601 5601 5602 5602 5603 5604 5605 5607 5608 5609 5608 5608 5607 5607 5609 5611 5611 5611 5611 5611 5611 5611 5612 5612 5612 5613 5614 5614 5615 5616 5617 5616 5615 5614 5614 5614 5614 5614 5614
5557 5558 5560 5563 5566 5567 5569 5571 5573 5582 5589 5587 5589 5592 5584 5580 5586 5586 5587 5597 5599 5594 5593 5592 5590 5593 5597 5597 5598 5597 5595 5596 5599 5600 5603 5605 5606 5605 5604 5602 5598 5595 5593 5592 5594 5596 5595 5593 5592 5592 5591 5590 5591 5593 5595 5596 5597 5597 5596 5596 5597 5598 5599 5600 5601 5601 5601 5600 5600 5600 5600 5600 5600 5600 5601 5601 5602 5604 5604 5603 5602 5602 5602 5602 5602 5602
5553 5554 5556 5560 5562 5564 5566 5567 5570 5578 5584 5582 5583 5582 5575 5574 5580 5582 5585 5589 5587 5585 5588 5586 5584 5589 5592 5591 5592 5592 5590 5592 5593 5594 5596 5598 5599 5599 5598 5596 5593 5590 5586 5584 5585 5586 5587 5587 5586 5584 5583 5581 5580 5582 5583 5585 5587 5587 5586 5585 5585 5586 5588 5589 5590 5590 5589 5589 5589 5588 5588 5588 5587 5588 5588 5588 5589 5591 5591 5590 5589 5590 5590 5590 5590 5590
5548 5549 5551 5556 5558 5559 5559 5561 5566 5575 5579 5577 5575 5572 5570 5572 5577 5577 5576 5577 5578 5580 5580 5579 5580 5583 5584 5585 5587 5586 5585 5586 5587 5587 5589 5590 5591 5592 5592 5590 5589 5586 5581 5578 5576 5576 5577 5579 5578 5577 5575 5573 5572 5572 5573 5574 5575 5576 5577 5576 5575 5575 5576 5577 5578 5578 5578 5578 5578 5577 5577 5577 5576 5576 5576 5577 5577 5578 5579 5578 5577 5577 5578 5578 5578 5579
5541 5544 5548 5551 5552 5551 5551 5557 5566 5571 5572 5570 5566 5564 5565 5568 5568 5567 5566 5568 5571 5573 5573 5573 5575 5576 5578 5580 5580 5579 5580 5581 5580 5581 5582 5581 5583 5584 5584 5583 5582 5579 5576 5572 5568 5567 5567 5568 5570 5569 5567 5564 5562 5562 5562 5564 5565 5566 5565 5565 5565 5566 5567 5567 5566 5566 5566 5566 5566 5566 5566 5566 5566 5565 5565 5565 5566 5567 5567 5566 5565 5565 5565 5564 5565 5566
5538 5542 5543 5544 5545 5546 5549 5557 5564 5564 5561 5560 5558 5556 5558 5561 5561 5560 5561 5563 5566 5566 5567 5568 5568 5569 5572 5573 5572 5573 5574 5573 5573 5574 5574 5574 5575 5575 5575 5575 5573 5571 5569 5565 5561 5559 5558 5558 5559 5560 5558 5556 5553 5551 5551 5553 5554 5556 5555 5554 5553 5555 5557 5558 5557 5556 5556 5555 5555 5555 5555 5556 5555 5555 5554 5554 5555 5555 5556 5555 5555 5555 5554 5553 5553 5553
5535 5537 5537 5538 5541 5542 5546 5553 5557 5555 5553 5552 5551 5551 5553 5555 5555 5555 5555 5557 5559 5560 5560 5561 5562 5563 5564 5564 5565 5566 5566 5565 5566 5565 5565 5566 5566 5565 5566 5566 5564 5561 5559 5557 5554 5551 5549 5549 5548 5549 5549 5548 5545 5543 5543 5543 5544 5546 5546 5545 5544 5545 5545 5546 5547 5547 5547 5546 5545 5545 5545 5546 5546 5545 5544 5544 5544 5545 5545 5545 5545 5545 5544 5544 5543 5543
5530 5531 5531 5533 5536 5537 5542 5548 5551 5550 5548 5545 5543 5544 5547 5548 5549 5549 5549 5550 5552 5553 5554 5555 5556 5556 5556 5556 5557 5557 5557 5558 5557 5556 5556 5556 5556 5556 5557 5556 5555 5553 5551 5549 5547 5544 5542 5541 5540 5539 5540 5539 5537 5536 5535 5535 5535 5536 5536 5536 5537 5537 5537 5537 5537 5538 5538 5537 5537 5536 5536 5537 5537 5537 5536 5535 5535 5535 5535 5535 5535 5536 5536 5535 5534 5535
5526 5525 5526 5530 5531 5532 5538 5542 5542 5542 5542 5539 5537 5538 5541 5542 5543 5542 5542 5544 5544 5545 5547 5547 5548 5548 5548 5548 5548 5549 5550 5549 5549 5548 5548 5547 5547 5547 5547 5547 5546 5545 5543 5542 5541 5538 5537 5536 5534 5533 5533 5533 5531 5530 5529 5528 5527 5526 5526 5528 5529 5529 5530 5530 5530 5530 5529 5529 5529 5528 5528 5528 5528 5528 5528 5527 5526 5526 5526 5526 5526 5527 5527 5526 5525 5526
5520 5520 5523 5525 5525 5526 5532 5535 5534 5535 5536 5533 5532 5532 5534 5535 5535 5534 5535 5536 5537 5537 5539 5539 5540 5540 5540 5540 5540 5541 5541 5541 5540 5540 5540 5539 5539 5539 5538 5537 5538 5537 5535 5535 5533 5532 5531 5530 5528 5527 5527 5526 5525 5524 5523 5522 5521 5519 5519 5519 5521 5522 5523 5523 5523 5524 5523 5522 5521 5521 5520 5520 5519 5519 5519 5519 5518 5518 5517 5517 5517 5518 5519 5518 5516 5517
5515 5517 5519 5519 5519 5522 5527 5528 5526 5527 5527 5526 5525 5526 5526 5527 5527 5527 5527 5528 5528 5530 5531 5532 5532 5532 5532 5532 5532 5532 5532 5532 5532 5531 5531 5531 5531 5530 5529 5529 5528 5528 5527 5527 5525 5524 5524 5522 5522 5521 5520 5519 5518 5518 5517 5516 5515 5514 5513 5512 5513 5515 5516 5516 5517 5517 5515 5514 5514 5513 5513 5512 5512 5511 5510 5510 5511 5510 5510 5509 5508 5508 5509 5509 5508 5508
5511 5513 5513 5512 5513 5516 5519 5519 5518 5518 5519 5518 5518 5518 5518 5518 5519 5519 5520 5520 5521 5522 5524 5524 5524 5524 5524 5524 5523 5523 5523 5523 5522 5521 5521 5521 5521 5522 5521 5520 5519 5519 5519 5518 5517 5517 5515 5514 5514 5514 5513 5512 5511 5510 5510 5509 5508 5507 5506 5505 5506 5507 5507 5508 5509 5509 5508 5507 5506 5505 5505 5505 5504 5504 5503 5502 5502 5502 5503 5503 5502 5501 5500 5500 5500 5500